Location: Asheville, NC
(35.6000°N, 82.5500°W)
Time: 22:51:25
(UTC-05:00)

Vanguard 3 - Pass Details

Date: 15 December 2017
Orbit: 508 x 3264 km, 33.4° (Epoch: 17 January)

Event Time Altitude Azimuth Distance (km) Brightness Sun altitude
Rises 17:55:54 0° 263° (W) 2,737 11.6 -7.7°
Reaches altitude 10° 17:58:34 10° 241° (WSW) 2,020 10.9 -8.2°
Maximum altitude 18:01:29 17° 200° (SSW) 1,863 9.6 -8.7°
Drops below altitude 10° 18:05:09 10° 162° (SSE) 2,662 9.9 -9.4°
Sets 18:09:32 0° 144° (SE) 4,132 10.6 -10.2°
